Time,TemperatureF,DewpointF,PressureIn,WindDirection,WindDirectionDegrees,WindSpeedMPH,WindSpeedGustMPH,Humidity,HourlyPrecipIn,Conditions,Clouds,dailyrainin,SolarRadiationWatts/m^2,SoftwareType,DateUTC
2013-05-01 00:01:00,68.8,22.2,29.86,East,81,6.0,9.0,17,0.00,,,0.00,0,Wunderground v.1.15,2013-05-01 07:01:00,
2013-05-01 00:11:00,68.6,22.0,29.87,ENE,76,8.0,8.0,17,0.00,,,0.00,0,Wunderground v.1.15,2013-05-01 07:11:00,
2013-05-01 00:21:00,68.5,23.3,29.87,NE,56,9.0,9.0,18,0.00,,,0.00,0,Wunderground v.1.15,2013-05-01 07:21:00,
2013-05-01 00:31:00,68.2,21.7,29.86,East,87,10.0,10.0,17,0.00,,,0.00,0,Wunderground v.1.15,2013-05-01 07:31:00,
2013-05-01 00:40:00,68.3,20.3,29.86,ENE,69,11.0,11.0,16,0.00,,,0.00,0,Wunderground v.1.15,2013-05-01 07:40:00,
2013-05-01 00:51:00,68.3,20.3,29.86,NE,56,13.0,15.0,16,0.00,,,0.00,0,Wunderground v.1.15,2013-05-01 07:51:00,
2013-05-01 01:01:00,68.0,20.1,29.87,NE,55,13.0,13.0,16,0.00,,,0.00,0,Wunderground v.1.15,2013-05-01 08:01:00,
2013-05-01 01:11:00,68.0,18.6,29.87,ENE,63,14.0,14.0,15,0.00,,,0.00,0,Wunderground v.1.15,2013-05-01 08:11:00,
2013-05-01 01:21:00,68.0,18.6,29.87,East,88,15.0,15.0,15,0.00,,,0.00,0,Wunderground v.1.15,2013-05-01 08:21:00,
2013-05-01 01:31:00,68.0,18.6,29.87,ENE,68,17.0,19.0,15,0.00,,,0.00,0,Wunderground v.1.15,2013-05-01 08:31:00,
2013-05-01 01:41:00,67.9,18.5,29.87,ENE,74,15.0,15.0,15,0.00,,,0.00,0,Wunderground v.1.15,2013-05-01 08:41:00,
2013-05-01 01:51:00,67.5,19.7,29.87,NE,36,13.0,13.0,16,0.00,,,0.00,0,Wunderground v.1.15,2013-05-01 08:51:00,
2013-05-01 02:01:00,67.1,19.4,29.88,ENE,67,10.0,14.0,16,0.00,,,0.00,0,Wunderground v.1.15,2013-05-01 09:01:00,
2013-05-01 02:11:00,66.9,19.2,29.88,ENE,73,9.0,9.0,16,0.00,,,0.00,0,Wunderground v.1.15,2013-05-01 09:11:00,
2013-05-01 02:21:00,66.6,19.0,29.88,ESE,103,9.0,9.0,16,0.00,,,0.00,0,Wunderground v.1.15,2013-05-01 09:21:00,
2013-05-01 02:31:00,66.7,19.0,29.88,ENE,72,12.0,17.0,16,0.00,,,0.00,0,Wunderground v.1.15,2013-05-01 09:31:00,
2013-05-01 02:41:00,66.7,19.0,29.88,ENE,75,13.0,13.0,16,0.00,,,0.00,0,Wunderground v.1.15,2013-05-01 09:41:00,
2013-05-01 02:51:00,66.5,20.3,29.88,ENE,58,12.0,12.0,17,0.00,,,0.00,0,Wunderground v.1.15,2013-05-01 09:51:00,
2013-05-01 03:05:00,66.4,18.8,29.87,ENE,76,16.0,23.0,16,0.00,,,0.00,0,Wunderground v.1.15,2013-05-01 10:05:00,
2013-05-01 03:10:00,66.3,18.7,29.87,NE,35,17.0,23.0,16,0.00,,,0.00,0,Wunderground v.1.15,2013-05-01 10:10:00,
2013-05-01 03:20:00,66.0,18.5,29.88,ENE,65,15.0,22.0,16,0.00,,,0.00,0,Wunderground v.1.15,2013-05-01 10:20:00,
2013-05-01 03:30:00,66.0,18.5,29.89,East,80,15.0,17.0,16,0.00,,,0.00,0,Wunderground v.1.15,2013-05-01 10:30:00,
2013-05-01 03:40:00,65.7,18.2,29.89,ENE,63,13.0,17.0,16,0.00,,,0.00,0,Wunderground v.1.15,2013-05-01 10:40:00,
2013-05-01 03:50:00,65.4,19.4,29.89,ENE,65,10.0,15.0,17,0.00,,,0.00,0,Wunderground v.1.15,2013-05-01 10:50:00,
2013-05-01 04:00:00,65.4,19.4,29.89,NE,56,14.0,14.0,17,0.00,,,0.00,0,Wunderground v.1.15,2013-05-01 11:00:00,
2013-05-01 04:10:00,65.2,19.2,29.90,ESE,102,15.0,15.0,17,0.00,,,0.00,0,Wunderground v.1.15,2013-05-01 11:10:00,
2013-05-01 04:20:00,65.2,19.2,29.90,East,99,15.0,20.0,17,0.00,,,0.00,0,Wunderground v.1.15,2013-05-01 11:20:00,
2013-05-01 04:30:00,65.2,19.2,29.90,ENE,59,18.0,27.0,17,0.00,,,0.00,0,Wunderground v.1.15,2013-05-01 11:30:00,
2013-05-01 04:40:00,65.0,19.1,29.90,NE,51,18.0,18.0,17,0.00,,,0.00,0,Wunderground v.1.15,2013-05-01 11:40:00,
2013-05-01 04:50:00,64.9,19.0,29.89,NE,53,18.0,23.0,17,0.00,,,0.00,0,Wunderground v.1.15,2013-05-01 11:50:00,
2013-05-01 05:00:00,64.7,18.8,29.89,ENE,57,19.0,21.0,17,0.00,,,0.00,0,Wunderground v.1.15,2013-05-01 12:00:00,
2013-05-01 05:10:00,64.5,18.7,29.89,ENE,69,16.0,16.0,17,0.00,,,0.00,0,Wunderground v.1.15,2013-05-01 12:10:00,
2013-05-01 05:20:00,64.1,19.7,29.90,NE,54,12.0,12.0,18,0.00,,,0.00,0,Wunderground v.1.15,2013-05-01 12:20:00,
2013-05-01 05:30:00,63.6,19.3,29.90,ENE,66,11.0,11.0,18,0.00,,,0.00,0,Wunderground v.1.15,2013-05-01 12:30:00,
2013-05-01 05:40:00,63.3,19.0,29.91,East,85,12.0,14.0,18,0.00,,,0.00,0,Wunderground v.1.15,2013-05-01 12:40:00,
2013-05-01 05:50:00,63.7,18.0,29.90,NNE,29,15.0,18.0,17,0.00,,,0.00,0,Wunderground v.1.15,2013-05-01 12:50:00,
2013-05-01 06:00:00,63.8,18.1,29.91,NE,36,16.0,17.0,17,0.00,,,0.00,0,Wunderground v.1.15,2013-05-01 13:00:00,
2013-05-01 06:10:00,63.8,18.1,29.92,NE,50,13.0,13.0,17,0.00,,,0.00,0,Wunderground v.1.15,2013-05-01 13:10:00,
2013-05-01 06:20:00,63.8,18.1,29.92,East,83,13.0,13.0,17,0.00,,,0.00,9,Wunderground v.1.15,2013-05-01 13:20:00,
2013-05-01 06:30:00,63.7,18.0,29.92,NNE,26,14.0,14.0,17,0.00,,,0.00,16,Wunderground v.1.15,2013-05-01 13:30:00,
2013-05-01 06:45:00,63.4,17.8,29.93,ENE,70,15.0,22.0,17,0.00,,,0.00,23,Wunderground v.1.15,2013-05-01 13:45:00,
2013-05-01 06:50:00,63.4,17.8,29.93,NE,46,15.0,18.0,17,0.00,,,0.00,26,Wunderground v.1.15,2013-05-01 13:50:00,
2013-05-01 07:00:00,63.4,17.8,29.94,East,84,16.0,16.0,17,0.00,,,0.00,42,Wunderground v.1.15,2013-05-01 14:00:00,
2013-05-01 07:10:00,63.4,17.8,29.94,NE,49,16.0,16.0,17,0.00,,,0.00,67,Wunderground v.1.15,2013-05-01 14:10:00,
2013-05-01 07:20:00,63.3,19.0,29.94,NNE,33,15.0,15.0,18,0.00,,,0.00,95,Wunderground v.1.15,2013-05-01 14:20:00,
2013-05-01 07:30:00,63.3,19.0,29.95,ENE,67,14.0,14.0,18,0.00,,,0.00,121,Wunderground v.1.15,2013-05-01 14:30:00,
2013-05-01 07:40:00,63.5,19.2,29.96,ENE,69,12.0,12.0,18,0.00,,,0.00,153,Wunderground v.1.15,2013-05-01 14:40:00,
2013-05-01 07:50:00,64.0,19.6,29.96,NE,46,12.0,13.0,18,0.00,,,0.00,176,Wunderground v.1.15,2013-05-01 14:50:00,
2013-05-01 08:00:00,64.2,21.0,29.97,East,85,10.0,13.0,19,0.00,,,0.00,220,Wunderground v.1.15,2013-05-01 15:00:00,
2013-05-01 08:10:00,64.4,21.2,29.98,ENE,62,9.0,15.0,19,0.00,,,0.00,248,Wunderground v.1.15,2013-05-01 15:10:00,
2013-05-01 08:20:00,64.5,22.5,29.98,NE,47,7.0,7.0,20,0.00,,,0.00,234,Wunderground v.1.15,2013-05-01 15:20:00,
2013-05-01 08:30:00,64.8,20.2,29.99,NE,40,7.0,11.0,18,0.00,,,0.00,292,Wunderground v.1.15,2013-05-01 15:30:00,
2013-05-01 08:40:00,64.9,20.3,29.99,ENE,69,12.0,12.0,18,0.00,,,0.00,315,Wunderground v.1.15,2013-05-01 15:40:00,
2013-05-01 08:50:00,65.1,21.8,29.99,NE,53,11.0,12.0,19,0.00,,,0.00,378,Wunderground v.1.15,2013-05-01 15:50:00,
2013-05-01 09:00:00,65.6,22.2,29.99,NE,48,11.0,15.0,19,0.00,,,0.00,454,Wunderground v.1.15,2013-05-01 16:00:00,
2013-05-01 09:10:00,65.8,21.1,29.99,NNE,29,13.0,16.0,18,0.00,,,0.00,489,Wunderground v.1.15,2013-05-01 16:10:00,
2013-05-01 09:20:00,66.0,21.2,29.99,NE,51,15.0,15.0,18,0.00,,,0.00,531,Wunderground v.1.15,2013-05-01 16:20:00,
2013-05-01 09:30:00,66.6,21.7,29.99,NE,36,14.0,14.0,18,0.00,,,0.00,566,Wunderground v.1.15,2013-05-01 16:30:00,
2013-05-01 09:40:00,67.1,22.1,29.99,East,83,14.0,14.0,18,0.00,,,0.00,594,Wunderground v.1.15,2013-05-01 16:40:00,
2013-05-01 09:50:00,67.7,22.6,29.99,ENE,57,14.0,18.0,18,0.00,,,0.00,633,Wunderground v.1.15,2013-05-01 16:50:00,
2013-05-01 10:00:00,68.4,21.8,30.00,NE,50,9.0,9.0,17,0.00,,,0.00,657,Wunderground v.1.15,2013-05-01 17:00:00,
2013-05-01 10:10:00,68.8,20.7,30.00,NE,40,9.0,9.0,16,0.00,,,0.00,647,Wunderground v.1.15,2013-05-01 17:10:00,
2013-05-01 10:20:00,69.0,20.9,30.00,East,88,12.0,12.0,16,0.00,,,0.00,633,Wunderground v.1.15,2013-05-01 17:20:00,
2013-05-01 10:30:00,69.8,23.0,30.00,ENE,59,7.0,12.0,17,0.00,,,0.00,570,Wunderground v.1.15,2013-05-01 17:30:00,
2013-05-01 10:40:00,69.9,23.1,30.01,NE,34,10.0,14.0,17,0.00,,,0.00,571,Wunderground v.1.15,2013-05-01 17:40:00,
2013-05-01 10:50:00,70.4,20.5,30.01,ENE,57,11.0,12.0,15,0.00,,,0.00,768,Wunderground v.1.15,2013-05-01 17:50:00,
2013-05-01 11:00:00,70.3,20.4,30.01,ENE,70,12.0,15.0,15,0.00,,,0.00,816,Wunderground v.1.15,2013-05-01 18:00:00,
2013-05-01 11:10:00,70.3,20.4,30.01,NE,48,12.0,12.0,15,0.00,,,0.00,838,Wunderground v.1.15,2013-05-01 18:10:00,
2013-05-01 11:20:00,70.8,22.3,30.01,East,92,10.0,13.0,16,0.00,,,0.00,856,Wunderground v.1.15,2013-05-01 18:20:00,
2013-05-01 11:30:00,71.1,22.6,30.02,NNE,21,11.0,15.0,16,0.00,,,0.00,875,Wunderground v.1.15,2013-05-01 18:30:00,
2013-05-01 11:40:00,71.1,22.6,30.02,NE,38,12.0,14.0,16,0.00,,,0.00,895,Wunderground v.1.15,2013-05-01 18:40:00,
2013-05-01 11:50:00,71.6,23.0,30.02,ENE,76,10.0,10.0,16,0.00,,,0.00,909,Wunderground v.1.15,2013-05-01 18:50:00,
2013-05-01 12:00:00,72.3,25.0,30.02,ENE,62,6.0,13.0,17,0.00,,,0.00,926,Wunderground v.1.15,2013-05-01 19:00:00,
2013-05-01 12:10:00,72.2,23.5,30.02,NE,47,10.0,10.0,16,0.00,,,0.00,939,Wunderground v.1.15,2013-05-01 19:10:00,
2013-05-01 12:20:00,72.4,23.6,30.02,ENE,61,9.0,13.0,16,0.00,,,0.00,947,Wunderground v.1.15,2013-05-01 19:20:00,
2013-05-01 12:30:00,73.1,24.2,30.02,NE,48,10.0,17.0,16,0.00,,,0.00,958,Wunderground v.1.15,2013-05-01 19:30:00,
2013-05-01 12:40:00,73.3,25.8,30.02,ENE,59,8.0,8.0,17,0.00,,,0.00,965,Wunderground v.1.15,2013-05-01 19:40:00,
2013-05-01 12:50:00,73.9,26.3,30.02,NNE,17,4.0,8.0,17,0.00,,,0.00,972,Wunderground v.1.15,2013-05-01 19:50:00,
2013-05-01 13:00:00,74.3,25.2,30.02,East,83,8.0,13.0,16,0.00,,,0.00,977,Wunderground v.1.15,2013-05-01 20:00:00,
2013-05-01 13:10:00,74.8,25.6,30.02,ESE,122,7.0,7.0,16,0.00,,,0.00,979,Wunderground v.1.15,2013-05-01 20:10:00,
2013-05-01 13:20:00,75.8,24.8,30.03,ESE,112,5.0,10.0,15,0.00,,,0.00,979,Wunderground v.1.15,2013-05-01 20:20:00,
2013-05-01 13:30:00,76.2,26.7,30.02,ENE,59,4.0,10.0,16,0.00,,,0.00,981,Wunderground v.1.15,2013-05-01 20:30:00,
2013-05-01 13:40:00,76.0,28.0,30.02,NNE,28,9.0,10.0,17,0.00,,,0.00,981,Wunderground v.1.15,2013-05-01 20:40:00,
2013-05-01 13:50:00,76.3,28.3,30.02,ESE,114,9.0,9.0,17,0.00,,,0.00,974,Wunderground v.1.15,2013-05-01 20:50:00,
2013-05-01 14:00:00,76.3,26.8,30.02,ENE,68,9.0,9.0,16,0.00,,,0.00,969,Wunderground v.1.15,2013-05-01 21:00:00,
2013-05-01 14:10:00,76.9,25.7,30.02,East,93,9.0,9.0,15,0.00,,,0.00,960,Wunderground v.1.15,2013-05-01 21:10:00,
2013-05-01 14:20:00,77.4,27.7,30.03,East,95,8.0,9.0,16,0.00,,,0.00,953,Wunderground v.1.15,2013-05-01 21:20:00,
2013-05-01 14:30:00,77.9,29.5,30.03,NE,51,6.0,6.0,17,0.00,,,0.00,942,Wunderground v.1.15,2013-05-01 21:30:00,
2013-05-01 14:40:00,78.6,28.6,30.02,East,79,5.0,10.0,16,0.00,,,0.00,930,Wunderground v.1.15,2013-05-01 21:40:00,
2013-05-01 14:50:00,78.1,25.0,30.02,ESE,103,9.0,9.0,14,0.00,,,0.00,918,Wunderground v.1.15,2013-05-01 21:50:00,
2013-05-01 15:00:00,78.9,27.3,30.02,ESE,110,4.0,7.0,15,0.00,,,0.00,898,Wunderground v.1.15,2013-05-01 22:00:00,
2013-05-01 15:10:00,79.2,25.9,30.02,ESE,110,6.0,8.0,14,0.00,,,0.00,884,Wunderground v.1.15,2013-05-01 22:10:00,
2013-05-01 15:20:00,79.7,29.5,30.02,East,80,4.0,11.0,16,0.00,,,0.00,868,Wunderground v.1.15,2013-05-01 22:20:00,
2013-05-01 15:31:00,79.8,31.1,30.02,ENE,58,6.0,6.0,17,0.00,,,0.00,849,Wunderground v.1.15,2013-05-01 22:31:00,
2013-05-01 15:40:00,80.0,29.8,30.02,ESE,111,5.0,13.0,16,0.00,,,0.00,824,Wunderground v.1.15,2013-05-01 22:40:00,
2013-05-01 15:50:00,80.0,29.8,30.02,ENE,76,7.0,7.0,16,0.00,,,0.00,800,Wunderground v.1.15,2013-05-01 22:50:00,
2013-05-01 16:00:00,80.0,32.7,30.02,East,89,5.0,5.0,18,0.00,,,0.00,775,Wunderground v.1.15,2013-05-01 23:00:00,
2013-05-01 16:10:00,80.0,31.2,30.02,East,98,6.0,6.0,17,0.00,,,0.00,749,Wunderground v.1.15,2013-05-01 23:10:00,
2013-05-01 16:20:00,80.1,32.7,30.02,ENE,66,6.0,6.0,18,0.00,,,0.00,721,Wunderground v.1.15,2013-05-01 23:20:00,
2013-05-01 16:30:00,80.6,33.2,30.02,NE,55,5.0,5.0,18,0.00,,,0.00,694,Wunderground v.1.15,2013-05-01 23:30:00,
2013-05-01 16:40:00,80.8,33.3,30.01,ENE,72,5.0,5.0,18,0.00,,,0.00,666,Wunderground v.1.15,2013-05-01 23:40:00,
2013-05-01 16:50:00,80.8,34.7,30.01,ESE,118,6.0,6.0,19,0.00,,,0.00,631,Wunderground v.1.15,2013-05-01 23:50:00,
2013-05-01 17:00:00,81.1,34.9,30.01,NE,51,5.0,5.0,19,0.00,,,0.00,599,Wunderground v.1.15,2013-05-02 00:00:00,
2013-05-01 17:10:00,81.1,34.9,30.01,NE,44,6.0,6.0,19,0.00,,,0.00,568,Wunderground v.1.15,2013-05-02 00:10:00,
2013-05-01 17:20:00,80.9,34.8,30.02,NNE,32,6.0,8.0,19,0.00,,,0.00,533,Wunderground v.1.15,2013-05-02 00:20:00,
2013-05-01 17:30:00,80.9,34.8,30.02,ENE,71,7.0,7.0,19,0.00,,,0.00,501,Wunderground v.1.15,2013-05-02 00:30:00,
2013-05-01 17:40:00,81.0,36.1,30.02,ENE,63,5.0,5.0,20,0.00,,,0.00,468,Wunderground v.1.15,2013-05-02 00:40:00,
2013-05-01 17:50:00,81.2,36.3,30.02,ENE,69,4.0,7.0,20,0.00,,,0.00,431,Wunderground v.1.15,2013-05-02 00:50:00,
2013-05-01 18:00:00,81.2,35.0,30.02,ENE,74,4.0,4.0,19,0.00,,,0.00,394,Wunderground v.1.15,2013-05-02 01:00:00,
2013-05-01 18:10:00,80.9,36.1,30.02,NE,54,4.0,4.0,20,0.00,,,0.00,359,Wunderground v.1.15,2013-05-02 01:10:00,
2013-05-01 18:20:00,81.2,38.7,30.02,NE,45,2.0,8.0,22,0.00,,,0.00,323,Wunderground v.1.15,2013-05-02 01:20:00,
2013-05-01 18:30:00,81.1,36.2,30.03,ESE,123,3.0,9.0,20,0.00,,,0.00,287,Wunderground v.1.15,2013-05-02 01:30:00,
2013-05-01 18:40:00,80.6,37.0,30.02,ENE,75,5.0,5.0,21,0.00,,,0.00,251,Wunderground v.1.15,2013-05-02 01:40:00,
2013-05-01 18:50:00,80.2,35.5,30.02,ENE,78,5.0,5.0,20,0.00,,,0.00,216,Wunderground v.1.15,2013-05-02 01:50:00,
2013-05-01 19:00:00,79.9,36.5,30.02,NE,56,5.0,5.0,21,0.00,,,0.00,171,Wunderground v.1.15,2013-05-02 02:00:00,
2013-05-01 19:10:00,79.7,36.3,30.03,ENE,75,3.0,3.0,21,0.00,,,0.00,130,Wunderground v.1.15,2013-05-02 02:10:00,
2013-05-01 19:20:00,79.4,36.0,30.03,SE,132,2.0,5.0,21,0.00,,,0.00,91,Wunderground v.1.15,2013-05-02 02:20:00,
2013-05-01 19:30:00,78.9,37.9,30.03,East,92,2.0,2.0,23,0.00,,,0.00,56,Wunderground v.1.15,2013-05-02 02:30:00,
2013-05-01 19:41:00,77.4,42.6,30.04,ENE,76,1.0,1.0,29,0.00,,,0.00,30,Wunderground v.1.15,2013-05-02 02:41:00,
2013-05-01 19:50:00,76.5,41.0,30.04,East,92,1.0,1.0,28,0.00,,,0.00,12,Wunderground v.1.15,2013-05-02 02:50:00,
2013-05-01 20:00:00,75.7,38.4,30.04,East,89,1.0,1.0,26,0.00,,,0.00,5,Wunderground v.1.15,2013-05-02 03:00:00,
2013-05-01 20:10:00,75.7,33.0,30.05,ESE,106,4.0,10.0,21,0.00,,,0.00,0,Wunderground v.1.15,2013-05-02 03:10:00,
2013-05-01 20:20:00,76.1,32.1,30.05,ESE,123,6.0,7.0,20,0.00,,,0.00,0,Wunderground v.1.15,2013-05-02 03:20:00,
2013-05-01 20:30:00,76.3,31.0,30.05,ESE,103,7.0,7.0,19,0.00,,,0.00,0,Wunderground v.1.15,2013-05-02 03:30:00,
2013-05-01 20:40:00,75.9,30.7,30.05,SE,133,5.0,5.0,19,0.00,,,0.00,0,Wunderground v.1.15,2013-05-02 03:40:00,
2013-05-01 20:50:00,75.9,30.7,30.06,ESE,121,7.0,9.0,19,0.00,,,0.00,0,Wunderground v.1.15,2013-05-02 03:50:00,
2013-05-01 21:00:00,76.0,30.7,30.06,SE,124,8.0,8.0,19,0.00,,,0.00,0,Wunderground v.1.15,2013-05-02 04:00:00,
2013-05-01 21:05:00,76.0,29.4,30.06,ESE,121,8.0,11.0,18,0.00,,,0.00,0,Wunderground v.1.15,2013-05-02 04:05:00,
2013-05-01 21:11:00,76.1,29.5,30.06,ESE,113,10.0,10.0,18,0.00,,,0.00,0,Wunderground v.1.15,2013-05-02 04:11:00,
2013-05-01 21:15:00,76.1,28.1,30.06,ESE,103,9.0,10.0,17,0.00,,,0.00,0,Wunderground v.1.15,2013-05-02 04:15:00,
2013-05-01 21:20:00,76.2,29.6,30.06,ESE,121,9.0,11.0,18,0.00,,,0.00,0,Wunderground v.1.15,2013-05-02 04:20:00,
2013-05-01 21:30:00,76.1,29.5,30.07,ESE,112,6.0,6.0,18,0.00,,,0.00,0,Wunderground v.1.15,2013-05-02 04:30:00,
2013-05-01 21:40:00,75.8,29.2,30.07,ESE,111,2.0,2.0,18,0.00,,,0.00,0,Wunderground v.1.15,2013-05-02 04:40:00,
2013-05-01 21:50:00,75.5,29.0,30.07,SE,136,3.0,9.0,18,0.00,,,0.00,0,Wunderground v.1.15,2013-05-02 04:50:00,
2013-05-01 22:00:00,75.3,28.8,30.08,SE,136,6.0,7.0,18,0.00,,,0.00,0,Wunderground v.1.15,2013-05-02 05:00:00,
2013-05-01 22:11:00,74.4,30.7,30.08,SE,134,1.0,1.0,20,0.00,,,0.00,0,Wunderground v.1.15,2013-05-02 05:11:00,
2013-05-01 22:20:00,73.6,31.2,30.08,SE,134,0.0,0.0,21,0.00,,,0.00,0,Wunderground v.1.15,2013-05-02 05:20:00,
2013-05-01 22:30:00,72.7,35.8,30.08,SE,134,0.0,0.0,26,0.00,,,0.00,0,Wunderground v.1.15,2013-05-02 05:30:00,
2013-05-01 22:40:00,71.8,37.8,30.08,SE,134,0.0,0.0,29,0.00,,,0.00,0,Wunderground v.1.15,2013-05-02 05:40:00,
2013-05-01 22:50:00,71.2,37.3,30.09,SE,134,0.0,0.0,29,0.00,,,0.00,0,Wunderground v.1.15,2013-05-02 05:50:00,
2013-05-01 23:00:00,70.6,36.8,30.09,SE,134,0.0,0.0,29,0.00,,,0.00,0,Wunderground v.1.15,2013-05-02 06:00:00,
2013-05-01 23:10:00,70.3,36.5,30.09,SE,134,0.0,0.0,29,0.00,,,0.00,0,Wunderground v.1.15,2013-05-02 06:10:00,
2013-05-01 23:20:00,70.4,35.7,30.09,SE,134,0.0,0.0,28,0.00,,,0.00,0,Wunderground v.1.15,2013-05-02 06:20:00,
2013-05-01 23:30:00,70.6,35.0,30.09,SE,134,0.0,0.0,27,0.00,,,0.00,0,Wunderground v.1.15,2013-05-02 06:30:00,
2013-05-01 23:40:00,70.7,34.1,30.09,SE,134,0.0,0.0,26,0.00,,,0.00,0,Wunderground v.1.15,2013-05-02 06:40:00,
2013-05-01 23:50:00,71.0,34.4,30.09,SE,134,0.0,0.0,26,0.00,,,0.00,0,Wunderground v.1.15,2013-05-02 06:50:00,